Terminal Aerodrome Forecast
Issued by NWS

Home | Current Version | Previous Version | Text Only | Print | Product List | Glossary On
Versions: 1 2 3 4 5 6 7 8 9 10 11 12 13 14 15 16 17 18 19
000
FTUS44 KMAF 291728
TAFCNM
TAF
KCNM 291728Z 2918/3018 02007KT P6SM SCT100 SCT250
     FM292100 09007KT P6SM SCT100 SCT250
      TEMPO 2921/2924 VRB20G30KT TSRA BKN080CB=

USA.gov is the U.S. government's official web portal to all federal, state and local government web resources and services.